"Pseudo-MPEC" for P121Nrv

Created 2024 Nov 15 17:31:06 UT using Find_Orb

Click here for an explanation of pseudo-MPECs

 
 Astrometry: 
     P121Nrv* C2024 11 10.61891106 05 22.889-00 26 49.41   ~BAHl 21.23wXNEOCPF51
     P121Nrv  C2024 11 10.62543906 05 23.013-00 26 51.28   ~BAHl 21.33wXNEOCPF51
     P121Nrv  C2024 11 10.63197006 05 23.148-00 26 53.35   ~BAHl 21.15wXNEOCPF51

Station data:
(F51) Pan-STARRS 1, Haleakala  (N20.707234 W156.255910)  US/Hawaii.
   Observers J. Bulger, T. Lowe, A. Schultz, M. Willman. Measurers K.
   Chambers, S. Chastel, T. de Boer, L. Denneau, J. Fairlamb, H. Flewelling,
   M. Huber, C.-C. Lin, E. Magnier, Y. Ramanjooloo, R. Wainscoat, R. Weryk.
   1.8-m Ritchey-Chrétien + CCD.

Orbital elements:  P121Nrv
   Perihelion 2025 Feb 12.75589 +/- 52.5 TT = 18:08:28 (JD 2460719.25589)
Epoch 2024 Nov 11.0 TT = JDT 2460625.5   Earth MOID: 0.0060      AutoNEOCP
M 319.66524504 +/- 34               (J2000 ecliptic)
n   0.43021036 +/- 0.408            Peri.   90.96235 +/- 90
a   1.73786272 +/- 1.1              Node    90.03547 +/- 42
e   0.6448971 +/- 0.254             Incl.   21.16837 +/- 16
P   2.291/836.784d         H 20.02  G  0.15   U 12.1  SR
q 0.61712004 +/- 0.628    Q 2.85860540 +/- 57.3
From 3 observations 2024 Nov. 10 (18.8 min); mean residual 0".04
Residuals in arcseconds: 
241110 F51  .03+  .03-    241110 F51  .05-  .07+    241110 F51  .03+  .03-    

Ephemerides (geocentric):
Date (UTC) HH   RA             Dec           delta  r     elong  mag " sig PA
---- --------  ------------   ------------  ------ ------ -----  --- --------
2024 11 15 18  06 07 03.687   -00 50 48.95  .53877 1.4246 135.6 20.7  46d  90
2024 11 15 19  06 07 04.265   -00 50 59.68  .53815 1.4242 135.6 20.7  46d  90
2024 11 15 20  06 07 04.839   -00 51 10.39  .53753 1.4238 135.6 20.7  46d  90
2024 11 15 21  06 07 05.408   -00 51 21.07  .53691 1.4234 135.7 20.7  46d  90
2024 11 15 22  06 07 05.974   -00 51 31.74  .53629 1.4230 135.7 20.7  46d  90
2024 11 15 23  06 07 06.535   -00 51 42.39  .53567 1.4226 135.7 20.7  46d  90
2024 11 16 00  06 07 07.093   -00 51 53.02  .53506 1.4221 135.8 20.7  46d  90
2024 11 16 01  06 07 07.646   -00 52 03.63  .53444 1.4217 135.8 20.7  46d  90
2024 11 16 02  06 07 08.195   -00 52 14.22  .53382 1.4213 135.8 20.7  46d  90
2024 11 16 03  06 07 08.739   -00 52 24.79  .53320 1.4209 135.9 20.7  46d  90
2024 11 16 04  06 07 09.280   -00 52 35.34  .53259 1.4205 135.9 20.7  46d  90
2024 11 16 05  06 07 09.816   -00 52 45.87  .53197 1.4201 135.9 20.7  46d  90
2024 11 16 06  06 07 10.349   -00 52 56.38  .53135 1.4197 136.0 20.7  46d  90
2024 11 16 07  06 07 10.877   -00 53 06.87  .53073 1.4193 136.0 20.7  46d  90
2024 11 16 08  06 07 11.400   -00 53 17.34  .53012 1.4189 136.0 20.7  46d  90
2024 11 16 09  06 07 11.920   -00 53 27.79  .52950 1.4184 136.0 20.7  46d  90
2024 11 16 10  06 07 12.435   -00 53 38.21  .52888 1.4180 136.1 20.7  46d  90
2024 11 16 11  06 07 12.946   -00 53 48.62  .52827 1.4176 136.1 20.7  46d  90
2024 11 16 12  06 07 13.453   -00 53 59.01  .52765 1.4172 136.1 20.7  46d  90
2024 11 16 13  06 07 13.955   -00 54 09.38  .52704 1.4168 136.2 20.6  46d  90
2024 11 16 14  06 07 14.453   -00 54 19.73  .52642 1.4164 136.2 20.6  46d  90
2024 11 16 15  06 07 14.947   -00 54 30.05  .52580 1.4160 136.2 20.6  46d  90
2024 11 16 16  06 07 15.437   -00 54 40.36  .52519 1.4156 136.3 20.6  46d  90
2024 11 16 17  06 07 15.922   -00 54 50.64  .52457 1.4151 136.3 20.6  46d  90
2024 11 16 18  06 07 16.403   -00 55 00.91  .52396 1.4147 136.3 20.6  46d  90
2024 11 16 19  06 07 16.880   -00 55 11.15  .52334 1.4143 136.3 20.6  46d  90
2024 11 16 20  06 07 17.352   -00 55 21.37  .52273 1.4139 136.4 20.6  46d  90
2024 11 16 21  06 07 17.820   -00 55 31.57  .52211 1.4135 136.4 20.6  47d  90
2024 11 16 22  06 07 18.284   -00 55 41.75  .52150 1.4131 136.4 20.6  47d  90
2024 11 16 23  06 07 18.743   -00 55 51.91  .52088 1.4127 136.5 20.6  48d  89
2024 11 17 00  06 07 19.198   -00 56 02.05  .52027 1.4123 136.5 20.6  48d  89
2024 11 17 01  06 07 19.648   -00 56 12.16  .51966 1.4118 136.5 20.6  49d  89
2024 11 17 02  06 07 20.094   -00 56 22.25  .51904 1.4114 136.6 20.6  50d  89
2024 11 17 03  06 07 20.536   -00 56 32.32  .51843 1.4110 136.6 20.6  50d  90
2024 11 17 04  06 07 20.974   -00 56 42.37  .51781 1.4106 136.6 20.6  50d  90
2024 11 17 05  06 07 21.406   -00 56 52.40  .51720 1.4102 136.7 20.6  50d  90
2024 11 17 06  06 07 21.835   -00 57 02.41  .51659 1.4098 136.7 20.6  51d  90
2024 11 17 07  06 07 22.259   -00 57 12.39  .51597 1.4094 136.7 20.6  51d  90
2024 11 17 08  06 07 22.679   -00 57 22.35  .51536 1.4090 136.7 20.6  51d  90
2024 11 17 09  06 07 23.094   -00 57 32.29  .51475 1.4085 136.8 20.6  51d  90
2024 11 17 10  06 07 23.504   -00 57 42.20  .51414 1.4081 136.8 20.6  51d  90
2024 11 17 11  06 07 23.911   -00 57 52.10  .51352 1.4077 136.8 20.6  51d  90
2024 11 17 12  06 07 24.312   -00 58 01.97  .51291 1.4073 136.9 20.6  51d  90
2024 11 17 13  06 07 24.710   -00 58 11.82  .51230 1.4069 136.9 20.6  51d  90
2024 11 17 14  06 07 25.103   -00 58 21.64  .51169 1.4065 136.9 20.6  51d  90
2024 11 17 15  06 07 25.491   -00 58 31.44  .51107 1.4061 137.0 20.6  51d  90
2024 11 17 16  06 07 25.874   -00 58 41.22  .51046 1.4056 137.0 20.6  51d  90
2024 11 17 17  06 07 26.254   -00 58 50.98  .50985 1.4052 137.0 20.6  51d  90